• Join FlightAware (Why Join?)
  • Login
  • US Flag 
09:50PM EDT


 

Airport Tracker/Info


-or-


 

Live Flight TrackerFlight Track Log ✈ N151CL ✈ 08-Jul-2013 ✈ KTVC - KPTK

Flight Track Log - Related Links

Times and Time Zones

All times are in EDT time to prevent confusion due to time zone crossing. See the N151CL flight status page for this flight to view local times or setup timezone preferences in your user account.

Time Position Orientation Groundspeed Altitude Reporting Facility
EDT Latitude Longitude Course Direction KTS MPH feet Rate Location/Type
07:57PM 44.7650 -85.5892 147° Southeast 81 93 1,200  Level Minneapolis Center
07:58PM 44.7850 -85.5928 353° North 74 85 1,800 540 Climbing Minneapolis Center
07:59PM 44.7844 -85.6344 269° West 85 98 2,400 480 Climbing Minneapolis Center
08:00PM 44.7800 -85.6589 256° West 92 106 2,800 480 Climbing Minneapolis Center
08:01PM 44.7483 -85.6653 188° South 95 109 3,400 480 Climbing Minneapolis Center
08:03PM 44.6086 -85.4379 147° Southeast  Level Estimated
08:03PM 44.7228 -85.6669 183° South 93 107 3,900  Level Minneapolis Center
08:04PM 44.6986 -85.6483 151° Southeast 95 109 4,300 360 Climbing Minneapolis Center
08:05PM 44.6761 -85.6278 147° Southeast 97 112 4,700 300 Climbing Minneapolis Center
08:06PM 44.6536 -85.6078 148° Southeast 96 110 5,000 120 Climbing Minneapolis Center
08:07PM 44.6211 -85.5736 143° Southeast 108 124 5,000  Level Minneapolis Center
08:08PM 44.5936 -85.5389 138° Southeast 121 139 5,000  Level Minneapolis Center
08:09PM 44.5661 -85.5053 139° Southeast 127 146 5,000  Level Minneapolis Center
08:10PM 44.5369 -85.4769 145° Southeast 128 147 5,000  Level Minneapolis Center
08:11PM 44.5081 -85.4486 145° Southeast 128 147 5,000  Level Minneapolis Center
08:12PM 44.4797 -85.4194 144° Southeast 127 146 5,000  Level Minneapolis Center
08:13PM 44.4514 -85.3892 143° Southeast 127 146 5,000  Level Minneapolis Center
08:14PM 44.4225 -85.3575 142° Southeast 129 148 5,000  Level Minneapolis Center
08:15PM 44.3889 -85.3192 141° Southeast 130 150 5,000  Level Minneapolis Center
08:16PM 44.3622 -85.2842 137° Southeast 131 151 5,000  Level Minneapolis Center
08:17PM 44.3361 -85.2506 137° Southeast 129 148 5,000 240 Level Minneapolis Center
08:18PM 44.3086 -85.2222 144° Southeast 125 144 5,500 420 Climbing Minneapolis Center
08:19PM 44.2858 -85.2006 146° Southeast 108 124 5,900 420 Climbing Minneapolis Center
08:20PM 44.2656 -85.1819 147° Southeast 94 108 6,400 360 Climbing Minneapolis Center
08:21PM 44.2456 -85.1644 148° Southeast 88 101 6,700 240 Climbing Minneapolis Center
08:22PM 44.2172 -85.1392 147° Southeast 96 110 7,000 120 Climbing Minneapolis Center
08:23PM 44.1878 -85.1108 145° Southeast 117 135 7,000  Level Minneapolis Center
08:24PM 44.1572 -85.0808 145° Southeast 131 151 7,000  Level Minneapolis Center
08:25PM 44.1278 -85.0508 144° Southeast 133 153 7,000  Level Minneapolis Center
08:26PM 44.0967 -85.0228 147° Southeast 132 152 7,000  Level Minneapolis Center
08:27PM 44.0664 -84.9942 146° Southeast 132 152 7,000  Level Minneapolis Center
08:28PM 44.0350 -84.9644 146° Southeast 134 154 7,000  Level Minneapolis Center
08:29PM 44.0019 -84.9308 144° Southeast 135 155 7,000  Level Minneapolis Center
08:30PM 43.9708 -84.9019 146° Southeast 135 155 7,000  Level Minneapolis Center
08:31PM 43.9392 -84.8747 148° Southeast 134 154 7,000  Level Minneapolis Center
08:32PM 43.9103 -84.8489 147° Southeast 128 147 7,000  Level Minneapolis Center
08:33PM 43.8814 -84.8217 146° Southeast 127 146 7,000  Level Minneapolis Center
08:34PM 43.8461 -84.7847 143° Southeast 131 151 7,000  Level Minneapolis Center
08:35PM 43.8175 -84.7533 142° Southeast 132 152 7,000  Level Minneapolis Center
08:36PM 43.7886 -84.7214 141° Southeast 132 152 7,000  Level Minneapolis Center
08:37PM 43.7597 -84.6908 143° Southeast 132 152 7,000  Level Minneapolis Center
08:39PM 43.7306 -84.6600 143° Southeast 132 152 7,000  Level Minneapolis Center
08:40PM 43.6961 -84.6228 142° Southeast 131 151 7,000  Level Minneapolis Center
08:41PM 43.6625 -84.5856 141° Southeast 130 150 7,000  Level Minneapolis Center
08:42PM 43.6344 -84.5556 142° Southeast 129 148 7,000  Level Minneapolis Center